Regional Weather Roundup
Issued by NWS

Home | Current Version | Previous Version | Graphics & Text | Print | Product List | Glossary On
Versions: 1 2 3 4 5 6 7 8 9 10 11 12 13 14 15 16 17 18 19 20 21 22 23 24 25 26 27 28 29 30 31 32 33 34 35 36 37 38 39 40 41 42 43 44 45 46 47 48 49 50
000
ASUS43 KIND 142209
RWRIN

WEATHER ROUNDUP FOR INDIANA
NATIONAL WEATHER SERVICE INDIANAPOLIS IN
600 PM EDT SUN SEP 14 2014

NOTE: "FAIR" INDICATES FEW OR NO CLOUDS BELOW 12,000 FEET WITH NO
SIGNIFICANT WEATHER AND/OR OBSTRUCTIONS TO VISIBILITY.

* - STATION DOES NOT REPORT WEATHER SUCH AS PRECIPITATION OR FOG.

+ - STATION NOT QUALITY CONTROLLED BY THE NATIONAL WEATHER SERVICE.
    USE DATA WITH CAUTION...ESPECIALLY DEWPOINT AND RELATIVE
    HUMIDITY OBSERVATIONS.

INZ001>003-010>013-019-020-142300-
NORTHWEST INDIANA

CITY           SKY/WX    TMP DP  RH WIND       PRES   REMARKS
GARY /AIRPORT/ MOSUNNY   66  43  42 SW7       30.20F
KNOX *+        SUNNY     65  42  43 SW5       30.20S
LA PORTE +     SUNNY     63  43  47 SW8       30.21S
MICHIGAN CITY+ SUNNY     63  41  45 SW5       30.21F
MONTICELLO +   SUNNY     65  45  48 CALM      30.20S
RENSSELAER +   SUNNY     66  45  45 S3        30.20F
VALPARAISO     SUNNY     64  42  44 SW9       30.21F

$$

LMZ046-743>745-142300-
SOUTHERN LAKE MICHIGAN

STATION/POSITION TIME  TEMP WIND        PRES
                       AIR  DIR/SP/G
                 (UTC) (F)  (DEG/KT/KT) (MB)
MICHIGAN CITY    2200   63  260/  6/  7   N/A

$$

INZ004-005-014>016-021>024-142300-
NORTH CENTRAL INDIANA

CITY           SKY/WX    TMP DP  RH WIND       PRES   REMARKS
GOSHEN         SUNNY     64  43  46 SW5       30.21F
LOGANSPORT +   SUNNY     64  41  42 SW5       30.21S
ROCHESTER +    SUNNY     68  43  40 SW3       30.22S
SOUTH BEND     SUNNY     64  41  42 S5        30.22S
WARSAW +       SUNNY     63  43  48 CALM      30.21S

$$

INZ006>009-017-018-025>027-142300-
NORTHEAST INDIANA

CITY           SKY/WX    TMP DP  RH WIND       PRES   REMARKS
ANGOLA *+      SUNNY     64  55  72 W6        30.21S
AUBURN +       SUNNY     64  41  42 SW5       30.22S
FORT WAYNE     MOSUNNY   65  46  50 SW5       30.21F
HUNTINGTON +   MOSUNNY   64  46  53 CALM      30.20F

$$

INZ028-029-035-036-043>045-051>053-142300-
WEST CENTRAL INDIANA

CITY           SKY/WX    TMP DP  RH WIND       PRES   REMARKS
GREENCASTLE +  SUNNY     64  45  48 CALM      30.22S
LAFAYETTE      SUNNY     65  45  48 W5        30.20F
TERRE HAUTE    SUNNY     68  44  42 CALM      30.21F

$$

INZ030>032-037>040-046>048-054>057-064-065-142300-
CENTRAL INDIANA

CITY           SKY/WX    TMP DP  RH WIND       PRES   REMARKS
CP ATTERBURY + SUNNY     68  46  45 NE3       30.21S
FRANKFORT +    SUNNY     69  44  41 W5        30.22F
INDIANAPOLIS   MOSUNNY   67  44  43 VRB5      30.20F
-EAGLE CREEK   SUNNY     68  44  42 SW5       30.20F
KOKOMO *+      SUNNY     68  45  42 SW7       30.20F
MARION +       MOSUNNY   67  42  40 SW5       30.21F
MT COMFORT *+  SUNNY     68  30  24 W3        30.21S
SHELBYVILLE    SUNNY     71  44  37 W5        30.19F
ZIONSVILLE +   SUNNY     67  43  41 CALM      30.22S

$$

INZ033-034-041-042-049-050-058-059-142300-
EAST CENTRAL INDIANA

CITY           SKY/WX    TMP DP  RH WIND       PRES   REMARKS
MUNCIE         SUNNY     67  45  45 W6        30.21S

$$

INZ060-061-067>069-081>083-085>088-142300-
SOUTHWEST INDIANA

CITY           SKY/WX    TMP DP  RH WIND       PRES   REMARKS
EVANSVILLE     SUNNY     71  45  39 CALM      30.20F
WASHINGTON +   SUNNY     70  48  45 CALM      30.20S

$$

INZ062-063-066-070>080-084-089>092-142300-
SOUTH CENTRAL AND SOUTHEAST INDIANA

CITY           SKY/WX    TMP DP  RH WIND       PRES   REMARKS
BLOOMINGTON    SUNNY     67  46  47 VRB3      30.20F

$$




USA.gov is the U.S. government's official web portal to all federal, state and local government web resources and services.